Wind_Speed
21 21 22 22 22 22 22 22 22 21 20 19 19 18 18 18 18 18 18 17 18 18 19 19 19 19 19 19 19 19 19 20 20 19 19 18 18 18 18 18 18 19 19 19
22 22 23 23 22 23 23 23 23 22 22 21 20 20 19 19 19 19 19 18 19 19 20 20 20 20 20 20 20 20 20 20 20 20 20 19 19 19 19 20 20 20 20 20
24 24 23 24 23 23 23 23 24 23 23 22 21 21 20 21 22 21 21 20 21 21 21 22 22 21 21 21 21 21 21 21 21 21 21 21 21 21 22 22 22 22 22 22
24 25 25 24 23 23 23 23 23 23 22 22 22 22 22 22 23 23 22 23 23 23 24 24 23 23 22 21 21 21 21 22 23 23 23 23 23 24 23 23 24 24 24 25
25 26 25 24 24 23 24 23 23 23 23 23 23 24 23 24 24 24 23 24 24 25 24 24 24 24 24 23 23 23 23 23 24 24 25 24 25 25 25 25 26 26 27 27
26 26 25 23 23 23 23 22 22 22 23 24 24 24 24 25 25 25 24 24 25 26 26 26 27 27 27 26 25 25 25 26 26 25 25 26 26 26 26 26 26 27 27 28
26 26 25 24 23 23 24 23 23 23 23 23 24 25 24 24 25 25 25 25 25 26 27 27 28 28 27 27 27 27 27 27 27 27 27 27 27 26 27 27 27 27 28 28
26 26 26 25 25 25 25 25 25 25 26 25 25 25 26 26 26 25 26 26 26 27 28 28 28 28 28 28 28 28 28 28 28 28 28 28 27 27 27 27 27 28 28 27
25 25 25 25 26 25 25 25 25 26 25 24 24 25 25 25 25 26 26 27 27 28 28 28 29 30 29 28 28 29 29 29 28 28 28 27 27 27 27 27 27 27 26 27
26 25 25 25 25 25 26 26 26 26 25 24 25 25 25 25 25 26 26 27 28 28 28 29 29 30 30 30 29 29 29 28 28 28 27 27 27 27 27 27 27 26 26 26
25 24 24 24 25 25 25 25 25 24 24 24 25 25 25 25 25 25 26 26 27 28 28 28 29 30 29 29 29 29 29 28 28 28 28 28 27 27 27 26 26 25 25 26
24 24 24 24 24 24 24 24 24 24 24 24 24 24 24 25 25 26 26 27 27 27 28 28 28 28 29 29 29 28 28 29 29 28 28 28 28 27 27 26 26 26 26 26
25 25 25 24 24 24 24 24 24 24 24 24 24 25 25 25 26 26 26 26 26 26 27 27 27 28 28 28 28 28 28 29 29 29 28 28 27 27 27 27 28 27 26 26
25 24 23 23 24 24 24 24 24 24 24 24 24 25 25 26 26 26 26 25 25 26 26 27 27 28 27 27 27 28 28 29 29 28 28 27 28 28 28 28 28 28 28 28
25 24 24 25 24 24 23 24 24 24 24 24 23 24 25 25 25 25 26 26 26 26 27 27 27 27 27 27 27 28 28 28 28 28 27 27 28 28 28 28 28 28 29 29
25 25 25 24 24 24 25 25 25 25 24 23 24 24 24 25 25 26 26 26 26 27 27 27 26 26 26 26 26 27 27 27 28 28 28 28 28 28 28 28 28 28 28 29
25 25 25 24 24 24 25 25 25 25 24 23 24 24 25 26 26 26 26 27 27 27 27 26 26 26 26 26 27 27 28 28 28 28 28 29 29 28 28 28 28 28 28 29
25 25 25 25 25 25 25 25 25 25 24 25 25 25 26 27 27 27 27 27 27 27 27 26 26 25 26 27 27 28 28 28 27 27 28 28 27 27 27 26 27 28 28 29
26 26 25 25 25 25 25 25 25 25 25 25 26 26 27 27 27 28 28 28 27 26 26 26 26 26 26 26 27 27 27 27 27 27 28 27 27 27 27 26 27 28 28 28
25 26 26 26 25 25 25 25 25 26 26 26 26 27 27 27 27 27 27 27 27 26 26 26 26 26 25 25 26 26 26 26 26 27 27 27 27 27 27 26 26 27 27 28
24 25 25 25 25 25 25 25 25 25 25 26 26 26 26 26 27 27 27 27 27 27 26 26 27 27 26 26 26 27 27 27 27 27 27 27 27 27 27 27 26 26 27 27
23 23 23 24 24 24 24 25 25 25 25 25 25 26 26 26 26 27 27 27 27 27 27 27 27 27 27 27 27 27 27 27 27 27 26 26 26 26 27 27 27 27 27 27
22 22 22 23 23 23 23 23 24 24 25 25 25 25 26 26 27 27 27 27 27 27 27 27 27 27 27 28 28 28 27 27 26 26 26 26 26 25 25 26 26 26 26 27
22 22 22 22 22 22 22 22 22 23 24 25 25 25 26 26 27 27 27 27 27 25 25 26 26 26 27 27 27 26 26 26 26 26 26 26 25 25 25 25 26 27 27 27
21 21 21 21 21 21 21 21 22 23 24 25 25 25 25 26 26 25 26 26 25 24 24 25 25 26 26 25 24 24 25 25 25 25 25 26 25 25 26 26 26 25 26 26
21 21 21 21 20 20 20 21 22 23 24 24 25 25 25 25 25 25 25 24 24 24 24 24 24 24 25 24 23 23 23 24 24 24 24 25 25 25 25 25 26 26 26 26
20 20 20 20 20 20 20 21 22 22 22 22 22 23 24 24 24 24 24 24 24 24 24 24 23 23 23 22 22 22 22 22 22 22 23 23 24 24 25 26 26 25 26 26
Wind_Direction
248 250 253 257 260 262 265 271 275 278 282 283 283 284 284 283 283 283 284 284 284 284 284 286 288 292 293 293 293 294 296 297 298 300 299 295 290 287 286 286 287 287 288 285
249 252 255 257 259 263 265 268 272 274 277 281 281 283 284 282 282 285 285 284 284 285 286 287 287 290 292 292 293 293 294 294 294 294 296 295 291 289 287 285 286 286 286 284
251 254 256 255 260 264 267 268 270 273 275 275 277 279 280 281 281 283 285 288 286 287 288 289 290 289 291 291 289 291 292 292 291 291 291 293 291 289 286 284 282 283 282 282
253 254 255 258 261 263 266 269 271 272 274 274 276 278 278 280 281 281 283 285 285 286 289 289 288 287 289 288 287 288 290 289 289 291 290 290 290 289 287 284 282 282 282 281
256 258 260 262 262 263 266 269 272 274 274 273 274 275 277 279 282 282 282 284 285 285 286 287 287 289 291 290 287 286 289 290 291 291 291 290 290 288 287 286 284 282 282 281
257 260 262 264 264 266 269 272 273 274 274 274 273 274 277 280 279 280 282 284 286 285 284 284 287 289 290 289 289 290 291 292 293 293 292 293 293 292 291 288 287 285 283 282
256 259 261 263 265 267 270 272 273 274 275 275 273 274 278 279 281 283 286 287 285 284 285 285 287 289 290 289 289 290 291 293 294 294 294 294 292 291 291 289 289 287 285 283
256 257 259 262 265 268 270 271 273 274 275 275 274 276 279 281 281 283 286 285 284 285 285 285 287 288 290 288 288 288 289 290 292 292 294 293 291 290 291 291 290 288 287 284
255 259 262 263 265 268 271 273 275 278 277 275 276 278 280 282 282 283 284 285 285 285 285 284 286 287 288 288 288 289 290 290 291 292 293 292 290 290 290 291 291 291 288 285
257 260 263 266 268 271 272 274 277 278 277 276 277 277 279 282 283 285 287 287 286 285 285 285 286 287 287 288 288 289 289 288 289 290 291 292 290 289 289 289 290 291 289 286
259 262 264 266 269 271 272 274 277 277 276 277 276 276 278 282 284 287 289 289 288 287 286 285 285 286 286 286 287 288 288 289 290 291 291 291 292 290 288 287 287 288 289 288
260 260 264 266 268 272 274 276 277 276 276 278 278 278 281 284 286 289 289 289 288 287 288 290 287 286 286 285 285 286 288 290 290 290 290 290 290 289 288 289 289 291 291 290
260 261 264 266 269 270 272 274 274 275 277 278 279 281 284 287 288 289 290 291 290 290 290 290 290 288 287 286 286 286 287 289 290 290 289 288 287 288 288 289 289 290 290 289
261 262 263 266 269 271 272 274 275 276 276 277 279 281 283 286 289 290 291 293 293 293 293 293 291 289 289 289 288 287 288 290 289 289 287 286 286 287 288 288 287 288 288 288
259 261 265 268 270 271 274 276 277 278 279 279 279 281 283 286 288 290 291 293 294 294 295 294 293 290 290 291 289 289 289 289 288 287 286 285 285 286 287 287 287 287 288 288
260 263 266 268 270 271 273 276 278 279 281 281 282 283 284 287 289 291 292 293 294 294 296 296 294 293 291 291 291 291 290 288 287 287 286 286 286 287 287 287 287 288 289 289
262 264 266 269 271 272 273 276 278 279 281 283 284 285 287 288 289 291 292 293 295 297 297 297 295 294 292 291 292 293 293 292 291 290 289 289 289 288 288 288 288 288 290 290
261 264 266 268 271 272 273 275 277 279 281 283 286 287 289 290 290 291 292 293 295 296 297 296 294 292 291 291 291 292 293 293 293 292 292 292 293 291 290 289 288 288 289 290
261 263 264 266 269 271 272 273 275 278 280 284 286 287 288 289 290 291 291 292 295 296 296 294 294 295 294 293 293 294 293 294 294 293 292 292 292 292 289 288 288 288 288 289
261 263 265 266 268 270 272 273 275 278 281 283 285 286 287 288 290 291 292 293 294 296 295 295 294 296 296 296 295 295 295 295 295 295 294 292 293 294 294 292 291 290 291 291
261 263 265 266 268 270 273 275 277 279 280 282 283 286 287 288 290 292 294 294 295 295 294 294 295 296 295 294 294 294 294 294 293 293 294 294 294 294 294 294 293 292 292 293
260 263 265 266 267 270 273 276 278 279 280 282 284 286 288 290 291 293 294 295 294 293 293 294 295 295 293 293 294 292 292 292 292 292 293 294 296 296 295 294 294 293 293 294
261 263 265 267 269 272 275 277 279 279 280 282 284 287 290 291 291 293 294 295 295 293 293 294 295 295 295 294 293 293 292 291 290 290 291 293 294 295 295 295 295 296 296 297
260 263 266 268 270 272 275 277 279 280 282 284 286 288 291 292 294 293 295 297 297 294 295 296 298 298 297 297 295 293 291 291 289 288 289 291 292 292 293 294 295 298 298 299
260 264 267 269 271 272 273 275 277 280 282 285 287 290 292 294 297 296 297 299 299 299 297 296 296 297 298 298 297 295 292 291 291 291 291 291 292 292 293 294 295 297 299 300
262 266 269 270 271 273 275 277 280 282 285 288 289 290 291 294 296 298 298 298 299 301 301 300 299 300 300 299 296 294 293 293 293 293 293 293 293 294 294 294 295 298 299 299
264 267 269 269 271 274 277 281 283 286 288 289 291 292 295 297 298 300 300 300 301 301 301 301 301 301 302 301 299 297 296 295 294 295 295 296 294 294 294 295 296 297 299 300
Height
5872 5873 5874 5875 5876 5876 5877 5877 5877 5877 5876 5876 5876 5875 5874 5873 5872 5871 5870 5869 5868 5867 5866 5865 5864 5863 5862 5860 5859 5858 5857 5855 5854 5853 5851 5850 5848 5847 5846 5845 5844 5842 5841 5840
5867 5868 5869 5870 5871 5871 5872 5872 5872 5872 5872 5871 5870 5870 5869 5868 5867 5866 5865 5864 5863 5862 5861 5860 5859 5858 5857 5855 5854 5853 5852 5850 5849 5847 5846 5844 5843 5842 5841 5839 5838 5836 5835 5834
5861 5863 5863 5864 5866 5866 5866 5866 5867 5866 5867 5866 5865 5865 5864 5863 5862 5861 5860 5859 5858 5857 5856 5855 5854 5853 5851 5850 5848 5847 5846 5844 5843 5841 5840 5839 5837 5836 5834 5833 5832 5830 5829 5828
5856 5858 5857 5861 5860 5860 5861 5861 5861 5861 5860 5860 5859 5859 5858 5857 5856 5855 5854 5853 5853 5852 5851 5850 5849 5847 5846 5844 5842 5842 5840 5838 5837 5835 5834 5832 5830 5829 5827 5825 5824 5823 5822 5821
5850 5850 5851 5854 5854 5854 5855 5855 5855 5854 5854 5854 5853 5853 5852 5851 5851 5850 5849 5848 5847 5846 5845 5844 5843 5841 5840 5838 5837 5835 5834 5832 5830 5828 5826 5824 5823 5821 5819 5817 5816 5815 5814 5813
5843 5844 5845 5848 5848 5847 5849 5849 5849 5848 5848 5848 5847 5847 5847 5845 5844 5843 5842 5842 5840 5839 5838 5837 5836 5834 5833 5832 5830 5829 5827 5825 5823 5821 5819 5817 5815 5813 5811 5810 5808 5807 5805 5804
5838 5838 5839 5841 5841 5842 5843 5844 5843 5842 5842 5841 5841 5841 5840 5838 5838 5837 5836 5835 5834 5833 5831 5830 5829 5827 5826 5824 5823 5822 5819 5818 5816 5813 5811 5809 5807 5805 5803 5802 5800 5798 5797 5795
5832 5833 5836 5835 5835 5836 5836 5836 5836 5835 5835 5835 5834 5834 5833 5832 5831 5830 5829 5828 5827 5825 5824 5823 5821 5820 5818 5817 5815 5813 5811 5810 5808 5806 5803 5801 5799 5797 5795 5794 5792 5790 5789 5787
5826 5828 5828 5828 5829 5829 5829 5829 5829 5829 5828 5828 5828 5827 5827 5826 5825 5823 5822 5821 5820 5818 5817 5815 5814 5812 5810 5808 5806 5805 5803 5802 5800 5798 5795 5793 5791 5789 5788 5786 5784 5782 5780 5779
5819 5820 5821 5822 5822 5823 5823 5822 5822 5822 5821 5821 5821 5821 5820 5819 5818 5817 5815 5814 5812 5811 5809 5808 5806 5804 5802 5800 5798 5796 5795 5794 5792 5790 5788 5786 5783 5781 5780 5778 5776 5774 5772 5771
5813 5814 5815 5816 5816 5816 5816 5815 5815 5815 5815 5814 5814 5814 5813 5812 5811 5810 5808 5806 5805 5803 5801 5800 5798 5796 5794 5791 5789 5788 5786 5785 5783 5781 5780 5778 5776 5774 5772 5770 5768 5767 5765 5764
5807 5808 5809 5809 5810 5810 5809 5809 5809 5808 5808 5808 5807 5807 5806 5805 5804 5802 5801 5799 5797 5795 5794 5792 5789 5787 5785 5783 5781 5779 5778 5777 5775 5773 5771 5769 5767 5765 5763 5762 5761 5759 5757 5756
5799 5800 5801 5802 5803 5803 5803 5803 5802 5802 5802 5801 5801 5800 5799 5798 5796 5795 5793 5791 5789 5787 5785 5783 5781 5779 5777 5775 5773 5771 5770 5768 5767 5765 5763 5761 5759 5758 5756 5755 5753 5751 5750 5748
5792 5793 5794 5795 5796 5796 5796 5796 5796 5795 5795 5795 5794 5793 5792 5790 5789 5788 5786 5784 5782 5780 5778 5775 5773 5771 5768 5766 5765 5763 5761 5760 5758 5756 5754 5752 5751 5750 5748 5746 5745 5744 5742 5741
5785 5786 5787 5788 5789 5789 5789 5789 5789 5789 5788 5787 5786 5786 5785 5783 5782 5780 5779 5777 5775 5773 5770 5768 5765 5763 5760 5759 5757 5755 5754 5752 5750 5748 5746 5744 5743 5742 5740 5738 5736 5735 5734 5733
5779 5780 5781 5781 5782 5783 5783 5782 5782 5782 5781 5780 5779 5778 5777 5776 5775 5773 5771 5769 5768 5765 5763 5760 5757 5755 5752 5751 5749 5747 5745 5744 5742 5740 5738 5736 5735 5733 5731 5730 5728 5727 5726 5724
5773 5774 5774 5775 5776 5776 5776 5776 5775 5775 5774 5773 5772 5771 5770 5769 5767 5766 5764 5762 5759 5757 5754 5752 5749 5747 5745 5743 5741 5739 5737 5735 5733 5732 5730 5728 5726 5724 5723 5721 5720 5719 5717 5715
5766 5767 5768 5768 5769 5769 5769 5769 5768 5767 5767 5766 5765 5764 5762 5761 5759 5758 5756 5753 5751 5749 5746 5744 5741 5739 5737 5735 5733 5731 5729 5727 5725 5724 5722 5720 5718 5716 5714 5713 5712 5710 5708 5706
5759 5760 5761 5761 5762 5762 5762 5762 5761 5761 5760 5759 5758 5756 5755 5753 5751 5749 5747 5745 5743 5741 5739 5736 5733 5731 5729 5727 5725 5723 5721 5719 5717 5716 5714 5712 5710 5708 5706 5705 5703 5701 5699 5698
5752 5753 5754 5754 5755 5755 5755 5755 5754 5753 5753 5752 5750 5749 5747 5745 5744 5741 5739 5737 5735 5732 5730 5728 5726 5724 5722 5720 5718 5716 5714 5712 5710 5708 5706 5705 5703 5701 5699 5697 5695 5693 5691 5689
5746 5746 5747 5748 5748 5748 5748 5747 5747 5746 5745 5744 5743 5742 5740 5738 5736 5734 5732 5730 5728 5725 5722 5720 5718 5716 5714 5712 5710 5708 5706 5704 5702 5700 5699 5697 5695 5693 5691 5689 5687 5685 5683 5681
5739 5740 5740 5740 5741 5741 5740 5740 5740 5739 5738 5737 5736 5734 5733 5731 5729 5727 5725 5723 5720 5717 5715 5713 5711 5708 5706 5704 5701 5699 5697 5695 5694 5692 5690 5689 5687 5685 5683 5681 5679 5677 5675 5673
5733 5733 5734 5734 5734 5733 5733 5733 5732 5732 5731 5730 5728 5727 5725 5724 5721 5719 5717 5715 5712 5710 5707 5705 5703 5701 5698 5696 5693 5691 5689 5687 5685 5684 5682 5681 5679 5677 5676 5674 5671 5669 5666 5664
5727 5727 5727 5727 5727 5727 5726 5726 5725 5725 5724 5723 5721 5720 5718 5716 5714 5711 5709 5707 5704 5701 5699 5697 5695 5692 5690 5687 5684 5682 5680 5678 5677 5676 5674 5673 5671 5670 5668 5666 5664 5661 5659 5656
5721 5721 5721 5721 5720 5720 5720 5719 5719 5718 5717 5716 5714 5712 5710 5708 5706 5704 5701 5699 5696 5694 5691 5689 5687 5685 5682 5679 5677 5674 5672 5671 5669 5668 5667 5665 5663 5662 5660 5658 5655 5653 5651 5649
5714 5715 5715 5714 5714 5714 5714 5713 5712 5711 5710 5709 5707 5705 5703 5701 5699 5697 5694 5692 5689 5687 5684 5682 5680 5677 5675 5672 5669 5667 5665 5664 5662 5660 5659 5657 5655 5654 5652 5650 5648 5645 5643 5641
5708 5708 5708 5708 5708 5708 5707 5707 5706 5705 5704 5702 5701 5699 5697 5695 5693 5690 5688 5685 5683 5680 5678 5675 5673 5670 5668 5665 5663 5661 5659 5657 5655 5654 5652 5650 5648 5646 5644 5642 5640 5637 5635 5632